Showing default

GEESAT 1-04, 52788

Orbit data source: Space-Track

GEESAT 1-04, 52788 is a payload satellite owned by GeeSpace (CN) in LEO that was launched on Thu, 02 Jun 2022 UTC via a CHANG ZHENG 2C launch vehicle from the Xichang Space Center, China (XSC). Payload-class satellites include a variety of spacecraft equipped with specific instruments for various scientific and technological missions. These include communications satellites like Starlink; space stations such as the ISS; scientific satellites like the Hubble; Earth observation satellites from companies like Planet Labs, Umbra, and HawkEye 360; GPS; miniature CubeSats for education and research; and military/defense satellites.

Loading next visibility...
Identifier
52788, 2022-058D
Orbit
LEO
Country
Flag of CNCN / PRC
Related business
Manufacturer
GWCG
Mission
Operational Commercial Navigation
Bus & Motor
GPS100, Unknown motor
Mass
130 kg wet, 130 kg dry
Launch date (UTC)
2022-06-02 (4 years ago)
Launch vehicle
CHANG ZHENG 2C
Launch site
Xichang Space Center, China (XSC)
Object type
Payload
Rocket body
Debris
Shape & HBR
Box + 2 Pan, 1.0 m
Radar Cross Section
0.833 m², Large (>1 m²)

Expand to show TLE details & history
Last TLE update: 2 days ago

TLE from 2 days ago
0 GEESAT 1-04
1 52788U 22058D   26171.41139668  .00000881  00000-0  13967-3 0  9998
2 52788  50.0029 188.1620 0009456 164.0376 196.0861 14.81407081220408
Epoch: 2026-06-20T09:52Z
TLE epoch observation values (Epoch: 2026-06-20T09:52:24.673Z)
Latitude
-0.00001°
Longitude
131.43278°
Altitude
631.793 km
Speed
7.54 km/s
True Right ascension
12h 32m 38s
True Declination
0° 00' 00"
Sunlit
Object was in daylight at epoch
Visualization orbit readout
Latitude
Unknown
Longitude
Unknown
Altitude
Unknown
Speed
Unknown
Apparent Right ascension
Unknown
Apparent Declination
Unknown
Sunlit
N/A
Visualization observer readout
Local Sidereal Time
21:57:40
Azimuth
Unknown
Elevation
Unknown
Doppler factor
Unknown
Orbital elements
Apogee altitude
632.266 km
Perigee altitude
619.02 km
Semi-major axis
7,003.78 km
Eccentricity
0.00095
Inclination
50.0029°
RAAN
188.162°
Arg. of periapsis
164.0376°
True anomaly
196.05611°
Mean anomaly
196.0861°
Eccentric anomaly
196.0711°
Mean motion
3.70292 °/min
Orbital period
97.22 mins
BSTAR
0.00013967
Loading maneuver chart data...
Computing Atmospheric mass density...
Loading historical data...
Loading historical data...
Loading historical data...
Loading historical data...
Loading historical data...
Loading historical data...
Loading historical data...

Documentation

Showing up to 5 results
|